Вернуться в каталог

OPS 4682 DEB

АктивенPO
NORAD 38400·DEBRIS·🇺🇸 United States

Запущен Apr 3, 1965 с Vandenberg Space Force Base

Loading…

Ближайшие Пролёты (ближайшие 24 часа)

TLE

СвежийSource: Space-Track

Эпоха: Sep 14, 2026, 02:21 UTC

1 38400U 65027DD  26257.09822287  .00000760  00000-0  25478-2 0  9996
2 38400  90.2607  19.2881 0034374 126.0261 234.4054 12.98507032625809

Отслеживайте OPS 4682 DEB в реальном времени с AllMySat

Download on the App Store